Weather History for Georgetown, DE

Change the Weather History Date:

Tuesday, June 3, 2014

  Actual Average Record
Temperature  
Mean Temperature 73 °F 69 °F  
Max Temperature 88 °F 79 °F 95 °F (1991)
Min Temperature 58 °F 59 °F 41 °F (1967)
Degree Days  
Heating Degree Days 0 1  
Month to date heating degree days 5 3  
Since 1 June heating degree days 5 3  
Since 1 July heating degree days 4505 4396  
Cooling Degree Days 8 5  
Month to date cooling degree days 8 15  
Year to date cooling degree days 109 109  
Since 1 June cooling degree days 8 15  
Growing Degree Days 22 (Base 50)    
Moisture  
Dew Point 57 °F    
Average Humidity 59    
Maximum Humidity 81    
Minimum Humidity 36    
Precipitation  
Precipitation 0.01 in 0.14 in 2.98 in (2013)
Month to date precipitation 0.01 0.43  
Year to date precipitation 17.20 17.37  
Sea Level Pressure  
Sea Level Pressure 29.97 in    
Wind  
Wind Speed 8 mph (SSW)    
Max Wind Speed 17 mph    
Max Gust Speed 21 mph    
Visibility 10 miles    
Events Rain    
T = Trace of Precipitation, MM = Missing Value Source: NWS Daily Summary

Daily Weather History Graph

Daily Weather History Graph

Search for Another Location

Airport:

Trip Planner

Search our weather history database for the weather conditions in past years. The results will help you decide how hot, cold, wet, or windy it might be!

Date:

Astronomy

Jun. 03, 2014 Rise Set
Actual Time 5:37 AM EDT 8:21 PM EDT
Civil Twilight 5:06 AM EDT 8:53 PM EDT
Nautical Twilight 4:27 AM EDT 9:32 PM EDT
Astronomical Twilight 3:42 AM EDT 10:16 PM EDT
Moon 10:56 AM EDT (6/3) No Moon Set
Length of Visible Light 15h 46m
Length of Day
14h 43m
Waxing Crescent, 30% of the Moon is Illuminated
Jun 3
Waxing Crescent
Jun 5
First Quarter
Jun 13
Full
Jun 19
Last Quarter
Jun 27
New

Hourly Weather History & Observations

Time (EDT) Temp. Heat Index Dew Point Humidity Pressure Visibility Wind Dir Wind Speed Gust Speed Precip Events Conditions
12:54 AM 61.0 °F - 45.0 °F 56% 30.09 in 10.0 mi SSW 8.1 mph - N/A   Clear
1:54 AM 60.1 °F - 46.9 °F 62% 30.08 in 10.0 mi SSW 6.9 mph - N/A   Clear
2:54 AM 59.0 °F - 48.9 °F 69% 30.06 in 10.0 mi SSW 6.9 mph - N/A   Clear
3:54 AM 57.9 °F - 50.0 °F 75% 30.05 in 10.0 mi South 6.9 mph - N/A   Clear
4:54 AM 57.9 °F - 52.0 °F 81% 30.04 in 10.0 mi SSW 6.9 mph - N/A   Clear
5:54 AM 59.0 °F - 53.1 °F 81% 30.03 in 10.0 mi SSW 3.5 mph - N/A   Clear
6:54 AM 62.1 °F - 55.0 °F 78% 30.03 in 10.0 mi SSW 3.5 mph - N/A   Clear
7:54 AM 69.1 °F - 55.9 °F 63% 30.02 in 10.0 mi SSW 9.2 mph - N/A   Clear
8:54 AM 73.0 °F - 57.9 °F 59% 30.02 in 10.0 mi Variable 6.9 mph - N/A   Clear
9:54 AM 78.1 °F - 60.1 °F 54% 30.00 in 10.0 mi SSW 10.4 mph - N/A   Clear
10:54 AM 81.0 °F 81.7 °F 61.0 °F 50% 29.99 in 10.0 mi SSW 10.4 mph - N/A   Clear
11:54 AM 84.9 °F 84.8 °F 60.1 °F 43% 29.98 in 10.0 mi SSW 11.5 mph - N/A   Clear
12:54 PM 86.0 °F 85.7 °F 60.1 °F 41% 29.97 in 10.0 mi SSW 9.2 mph 17.3 mph N/A   Partly Cloudy
1:54 PM 86.0 °F 84.9 °F 57.0 °F 37% 29.95 in 10.0 mi Variable 6.9 mph - N/A   Mostly Cloudy
2:54 PM 88.0 °F 86.7 °F 57.0 °F 35% 29.91 in 10.0 mi Variable 6.9 mph - N/A   Clear
3:54 PM 87.1 °F 85.9 °F 57.0 °F 36% 29.90 in 10.0 mi SW 8.1 mph - N/A   Clear
4:54 PM 84.9 °F 84.2 °F 57.9 °F 40% 29.89 in 10.0 mi Variable 6.9 mph - N/A   Clear
5:54 PM 82.9 °F 83.2 °F 60.1 °F 46% 29.88 in 10.0 mi Variable 6.9 mph - N/A   Mostly Cloudy
6:54 PM 75.9 °F - 64.9 °F 69% 29.88 in 10.0 mi Variable 5.8 mph - 0.00 in Rain Light Rain
7:54 PM 73.9 °F - 66.9 °F 79% 29.88 in 8.0 mi South 8.1 mph - 0.01 in Rain Light Rain
8:54 PM 72.0 °F - 66.0 °F 81% 29.87 in 10.0 mi SSE 9.2 mph - 0.00 in   Partly Cloudy
9:54 PM 71.1 °F - 64.9 °F 81% 29.88 in 10.0 mi South 9.2 mph - N/A   Clear
11:54 PM 68.0 °F - 63.0 °F 84% 29.86 in 10.0 mi South 8.1 mph - N/A   Clear